Tracking 19192 objects as of 22-Jun-2018
HD Live streaming from Space Station
objects crossing your sky now

FENGYUN 1C DEB

Track FENGYUN 1C DEB now!
10-day predictions


NORAD ID: 30821
Int'l Code: 1999-025AVF
Perigee: 695.6 km
Apogee: 838.5 km
Inclination: 99.1 °
Period: 100.0 minutes
Semi major axis: 7138 km
RCS: 0.0115 m2 (small)
Launch date: May 10, 1999
Source: People's Republic of China (PRC)
Launch site: Taiyaun Space Center, China (TSC)

Note: This is SATELLITE DEBRIS
aabbcc
Your satellite tracking list
Your tracking list is empty




NASA's NSSDC Master Catalog

Two Line Element Set (TLE):
1 30821U 99025AVF 18172.33079198  .00000199  00000-0  75892-4 0  9992
2 30821  99.0637  96.9067 0100070 348.0859 135.6316 14.39577373594420
Source of the keplerian elements: AFSPC